Location: Bush Observatory
(40.2653°N, 94.3194°W)
Time: 17:48:44
(UTC-05:00)

Daily predictions for brighter satellites

Satellite Brightness Start Highest point End
(mag) Time Altitude Azimuth Time Altitude Azimuth Time Altitude Azimuth
Cosmos 2208 Rocket 4.2 21:13:24 10° NNW 21:18:44 65° ENE 21:24:05 10° SSE
Helios 1B rocket 2.5 21:16:02 10° NNE 21:20:08 57° E 21:24:11 10° S
Cosmos 1570 Rocket 4.1 21:22:33 10° NNW 21:27:53 87° ENE 21:33:08 10° SSE
Cosmos 2084 4.4 21:24:20 10° SW 21:28:14 49° NW 21:31:59 10° NNE
Okean 3 Rocket 3.6 21:24:18 10° S 21:28:47 80° E 21:33:15 10° N
Spot 1 4.0 21:26:47 10° SSE 21:30:52 77° ENE 21:35:08 10° N
USA 32 4.3 21:26:54 10° S 21:32:08 78° W 21:37:24 10° N
SAR-Lupe-4 3.6 21:29:05 10° SSE 21:32:36 62° ENE 21:36:10 10° N
Cosmos 1766 Rocket 4.0 21:30:01 10° SSE 21:34:04 41° E 21:38:10 10° NNE
USA 234 4.1 21:31:27 10° ENE 21:36:46 26° SE 21:42:04 10° S
Cosmos 2016 Rocket 4.4 21:30:58 10° N 21:36:56 45° ENE 21:42:46 10° SSE
Helios 1A 3.1 21:32:56 10° S 21:37:04 78° WSW 21:41:14 10° NNW
Cosmos 2237 Rocket 4.4 21:35:52 10° NW 21:40:04 22° W 21:44:16 10° SSW
Meteor 1-21 Rocket 4.2 21:34:51 10° S 21:40:28 72° E 21:46:02 10° NNE
Cosmos 1356 Rocket 3.4 21:37:44 10° S 21:41:59 82° E 21:46:19 10° NNE
Cosmos 1242 Rocket 2.6 21:38:22 10° N 21:42:06 81° E 21:45:48 10° SSE
CZ-4B DEB 2.6 21:39:32 10° S 21:42:29 83° W 21:45:28 10° NNW
Cosmos 1674 2.7 21:41:41 10° S 21:45:26 84° W 21:49:12 10° N
Cosmos 468 Rocket 4.2 21:41:02 10° N 21:46:05 55° ENE 21:50:42 12° SE
ERS-1 Rocket 3.1 21:42:07 10° SSE 21:47:03 60° ENE 21:52:02 10° N
Cosmos 1603 3.8 21:45:04 10° NNW 21:50:42 64° ENE 21:55:40 13° SE
RESURS DK-1 2.6 21:47:04 10° NNW 21:51:12 60° ENE 21:54:38 14° SE
USA 245 4.5 21:48:40 13° SE 21:51:21 30° ENE 21:55:14 10° N
ARGOS 3.8 21:46:39 11° SE 21:51:25 42° ENE 21:56:29 10° N
SAR-Lupe-1 4.1 21:48:39 10° SSE 21:52:15 85° WSW 21:55:52 10° NNW
Cosmos 220 Rocket 4.1 21:58:55 10° S 22:03:15 58° ESE 22:07:33 10° NNE
Cosmos 1908 4.0 21:59:40 10° NNW 22:03:26 50° W 22:07:08 10° S
Resurs 01 Rocket 4.3 22:01:07 10° SW 22:03:26 14° W 22:05:47 10° WNW
Cosmos 1943 3.9 21:58:13 10° N 22:03:33 41° ENE 22:07:41 16° SE
Cosmos 1939 Rocket 4.4 22:00:09 10° SSW 22:03:48 33° W 22:07:32 10° NNW
Cosmos 371 Rocket 3.6 21:59:09 10° N 22:03:53 53° ENE 22:07:23 17° SE
Cosmos 2228 Rocket 3.7 21:59:49 10° N 22:04:11 41° ENE 22:07:15 18° SE
SL-16 R/B 3.7 22:01:53 10° NW 22:06:52 32° WSW 22:11:49 10° SSW
KORONAS-FOTON 4.2 22:05:50 10° SSW 22:09:35 62° W 22:13:21 10° N
Cosmos 1459 Rocket 4.3 22:06:21 10° NNW 22:12:35 67° W 22:18:40 10° S
ERBS 2.3 22:13:20 10° NW 22:16:44 77° NE 22:18:29 26° SE
GPS 2-05 Rocket1 3.4 22:14:32 10° SW 22:17:17 30° S 22:17:47 28° SSE
H-2A R/B 2.5 22:17:23 19° SE 22:21:00 51° ENE 22:26:14 10° N
H-2A ROCKET BODY 3.6 22:23:39 10° SSW 22:27:10 23° SE 22:36:02 10° E
SPOT 5 2.9 22:24:13 20° SSE 22:27:39 81° ENE 22:32:49 10° N
Lacrosse 5 2.2 22:23:04 10° NW 22:28:03 58° SW 22:31:05 23° SSE
Abrixas rocket 2.0 22:25:26 10° WNW 22:28:42 90° ESE 22:29:56 35° ESE
SL-08 RB Rocket 3.7 22:25:51 22° SSE 22:28:46 74° ENE 22:33:23 10° N
Cosmos 2151 3.3 22:27:50 25° SSE 22:30:02 47° E 22:34:11 10° NNE
Meteor 2-10 4.2 22:26:45 10° N 22:32:26 87° E 22:36:32 20° S
Cosmos 2123 Rocket 4.0 22:26:44 10° S 22:32:54 86° W 22:39:10 10° N
Landsat 7 4.2 22:35:07 26° SE 22:37:27 48° ENE 22:42:02 10° N
Cosmos 1626 2.6 22:38:03 34° SE 22:38:57 40° E 22:42:27 10° NNE
Cosmos 1356 3.4 22:38:51 35° SSE 22:40:06 64° E 22:43:35 10° NNE
Cosmos 1703 3.8 22:39:14 33° SE 22:40:23 42° E 22:44:10 10° NNE
Cosmos 1726 3.2 22:39:32 10° NNW 22:43:00 39° W 22:45:24 17° SSW
Cosmos 1814 Rocket 4.5 22:43:18 10° NNW 22:48:32 57° WSW 22:51:48 22° S
Cosmos 1354 Rocket 4.0 22:45:33 23° S 22:48:44 59° ESE 22:53:53 10° NNE
Tiangong 1 0.6 22:46:42 10° WNW 22:49:30 88° NNE 22:49:35 83° E
Terra 2.3 22:50:32 31° SE 22:52:23 47° ENE 22:56:58 10° N
Meteor 1-11 4.3 22:48:57 17° S 22:53:34 90° E 22:59:25 10° N
Abrixas 3.4 22:50:59 10° W 22:53:36 43° NNW 22:56:13 10° NE
Cosmos 1500 Rocket 3.7 22:50:42 21° SSW 22:53:41 75° W 22:58:10 10° N
Cosmos 1763 Rocket 3.7 22:48:47 10° NNW 22:53:50 65° WSW 22:56:30 27° S
Cosmos 841 Rocket 3.5 22:48:53 10° NNW 22:54:09 84° WSW 22:56:41 31° SSE
Cosmos 2285 Rocket 4.3 22:48:16 10° NNW 22:54:32 57° ENE 22:57:44 29° SE
Cosmos 1725 Rocket 4.4 22:50:05 10° NNW 22:56:13 62° W 23:00:51 18° SSW
Cosmos 1300 4.1 22:55:42 10° NNW 22:59:11 34° W 23:01:19 19° SW
Cosmos 2263 Rocket 2.2 22:53:49 10° SSW 22:59:22 79° WNW 23:04:59 10° NNE
Cosmos 304 Rocket 3.9 22:55:32 10° NNW 23:00:17 59° ENE 23:01:55 38° SE
IGS 5A 3.6 23:02:53 43° SE 23:03:55 57° ENE 23:08:00 10° N
CARTOSAT-1 3.6 23:03:22 43° SE 23:04:35 63° ENE 23:08:52 10° N
CZ-4 R/B 4.3 23:02:33 10° NNE 23:07:04 39° E 23:07:46 37° ESE
DMSP B5D2-2 4.0 23:04:12 10° NNE 23:09:27 88° WNW 23:12:26 26° SSW
Meteor 1-27 4.4 23:04:41 10° NNW 23:10:29 73° W 23:13:25 30° S
Cosmos 1805 Rocket 3.7 23:12:38 47° ESE 23:13:13 51° E 23:17:25 10° NNE
Cosmos 1151 Rocket 3.6 23:10:24 10° NNW 23:14:40 52° W 23:16:23 32° SSW
SPOT 1/Viking Rocket 4.2 23:13:42 25° SSW 23:16:23 48° W 23:21:22 10° NNW
Cosmos 1633 Rocket 4.1 23:16:57 30° E 23:16:57 30° E 23:20:41 10° NNE
COSMOS 2406 4.4 23:14:57 10° N 23:19:59 32° ENE 23:22:18 24° E
SWAS 4.3 23:18:52 45° SSW 23:20:11 85° ESE 23:24:31 10° NNE
USA 234 3.3 23:13:37 10° NE 23:20:11 81° NW 23:26:43 10° SW
Cosmos 1464 Rocket 4.2 23:16:03 10° N 23:22:08 58° E 23:24:20 38° SE
H-2A R/B 1.9 23:24:41 59° SSE 23:25:25 80° ENE 23:29:41 10° N
Delta 2 Rocket 4.2 23:22:31 10° WSW 23:28:08 55° S 23:29:26 45° SE
Cosmos 2058 4.1 23:26:59 22° SW 23:29:10 38° WNW 23:33:08 10° N
Spot 4 4.1 23:29:02 47° ESE 23:30:06 58° ENE 23:34:53 10° N
Cosmos 1455 2.2 23:28:12 10° NNW 23:32:03 70° W 23:32:20 66° SW
Cosmos 1844 Rocket 3.1 23:31:42 40° ESE 23:32:07 40° ESE 23:37:18 10° NE
CZ-4C R/B 2.1 23:31:21 47° S 23:32:35 61° ESE 23:38:19 10° NE
SL-24 R/B 4.3 23:44:42 74° ESE 23:44:54 76° ENE 23:49:07 10° N
Cosmos 540 Rocket 3.7 23:42:09 10° NNW 23:47:12 58° WSW 23:48:19 47° SSW
CZ-4B R/B 3.4 23:43:12 10° NNE 23:48:30 83° ESE 23:49:41 55° S
Cosmos 968 Rocket 3.4 23:52:31 61° S 23:53:23 76° ESE 23:58:39 10° NNE
